CAPE
1165 1249 1264 1304 1331 1328 1311 1287 1261 1204 1160 1121 1112 1113 1122 1140 1166 1167 1027 1007 1059 1259 1424 1518 1560 1642 1732 1889 1992 2081 2214 2314 2359 2464 2456 2515 2508 2535 2556 2573 2617 2663 2677 2752 2746 2701 2639 2523 2400 2303 2205 2151 2015 1565 856 616 684 663 570 544 560 584 601 627 613 554 322 3 22 127 202 46 135 106 150 123 175 227 270 452 482 398 369 381 370
1196 1238 1254 1279 1305 1311 1301 1297 1282 1247 1205 1195 1190 1201 1206 1226 1246 1239 1139 1034 1107 1264 1364 1472 1534 1578 1658 1745 1896 2052 2102 2259 2302 2436 2496 2498 2480 2525 2552 2544 2552 2568 2583 2613 2723 2756 2775 2694 2569 2448 2354 2329 2250 2165 1953 1593 1131 678 640 648 628 622 621 617 632 638 605 522 511 479 421 191 527 273 216 270 225 202 179 286 308 359 328 303 287
1153 1277 1278 1286 1298 1307 1306 1308 1300 1290 1268 1257 1269 1283 1298 1308 1311 1276 1188 1078 1184 1271 1351 1446 1536 1571 1614 1706 1799 1918 2043 2157 2267 2418 2515 2531 2549 2511 2513 2552 2561 2553 2540 2554 2576 2672 2683 2626 2561 2525 2432 2401 2338 2286 2155 1994 1746 1481 1152 744 580 618 637 620 609 622 585 596 560 576 544 444 415 577 372 319 448 402 336 292 341 316 354 339 305
1162 1238 1291 1308 1319 1321 1329 1320 1318 1325 1326 1317 1312 1334 1333 1359 1339 1293 1227 1127 1138 1364 1403 1461 1539 1566 1584 1682 1736 1857 1969 2065 2164 2319 2477 2531 2568 2595 2586 2531 2542 2540 2530 2506 2503 2558 2506 2485 2526 2528 2465 2420 2363 2329 2211 2106 1984 1850 1640 1426 1209 801 554 559 593 617 642 652 674 580 579 594 591 580 582 532 492 473 442 430 412 334 302 372 382
1171 1230 1289 1324 1334 1348 1342 1334 1327 1333 1345 1358 1362 1342 1353 1349 1323 1287 1219 1152 1107 1256 1474 1554 1606 1611 1627 1659 1717 1794 1899 2015 2124 2220 2370 2487 2542 2570 2580 2569 2539 2516 2512 2519 2526 2527 2523 2438 2416 2435 2389 2371 2324 2249 2146 2058 1954 1886 1746 1614 1466 1381 1231 1071 934 744 646 606 595 615 534 582 595 612 611 603 583 557 528 512 482 448 463 329 347
1148 1217 1270 1320 1344 1355 1363 1351 1336 1339 1355 1381 1374 1370 1350 1322 1297 1266 1237 1350 1226 1167 1328 1549 1655 1689 1712 1731 1738 1771 1856 1966 2078 2168 2269 2402 2490 2527 2566 2578 2553 2546 2488 2494 2520 2525 2515 2462 2448 2427 2390 2284 2225 2125 2106 2070 1988 1904 1773 1664 1558 1434 1368 1297 1221 1185 1172 1150 1067 1085 951 887 840 748 716 608 560 542 514 497 430 391 388 397 342
1094 1173 1246 1296 1325 1348 1358 1353 1344 1332 1354 1384 1384 1376 1356 1322 1296 1257 1339 1386 1403 1303 1281 1393 1599 1699 1759 1791 1782 1793 1816 1925 2038 2128 2201 2315 2429 2512 2530 2561 2583 2569 2586 2508 2526 2523 2492 2493 2490 2440 2399 2334 2227 2137 2046 2020 1950 1907 1832 1742 1634 1527 1423 1366 1283 1245 1220 1193 1177 1160 1141 1069 1032 1021 941 847 814 736 721 638 568 439 377 396 484
1057 1129 1210 1271 1320 1334 1338 1339 1341 1342 1356 1374 1383 1372 1350 1304 1269 1213 1352 1422 1456 1483 1440 1309 1450 1658 1736 1816 1854 1852 1851 1890 1953 2087 2185 2298 2385 2480 2540 2577 2588 2610 2633 2649 2553 2557 2557 2564 2530 2502 2440 2386 2307 2231 2158 2110 2034 1993 1904 1814 1726 1645 1556 1498 1420 1357 1334 1300 1256 1214 1143 1132 1096 1055 988 925 863 759 579 533 597 660 616 583 560
1068 1096 1151 1230 1285 1307 1314 1317 1337 1345 1359 1364 1363 1345 1315 1266 1222 1176 1376 1483 1550 1602 1598 1521 1396 1523 1674 1805 1893 1930 1918 1918 1945 2027 2139 2232 2366 2462 2506 2553 2595 2630 2639 2636 2628 2548 2543 2510 2514 2557 2526 2467 2425 2388 2356 2294 2248 2192 2114 2020 1947 1887 1834 1762 1715 1662 1636 1597 1555 1446 1334 1274 1191 1116 1053 926 822 752 695 720 752 753 685 704 714
1123 1122 1137 1176 1226 1270 1298 1307 1324 1327 1328 1328 1307 1291 1266 1246 1216 1200 1378 1482 1602 1710 1734 1736 1663 1592 1642 1735 1864 1963 2024 2037 1958 1923 1954 2203 2335 2392 2451 2534 2569 2619 2641 2652 2613 2637 2671 2630 2610 2609 2595 2593 2576 2560 2529 2495 2452 2408 2338 2273 2209 2162 2117 2075 2043 1934 1849 1816 1716 1617 1521 1453 1409 1265 1205 1114 1072 1069 1026 1031 1034 1089 1095 1081 1068
1178 1177 1162 1148 1162 1223 1281 1319 1321 1317 1317 1289 1288 1281 1275 1260 1243 1292 1404 1476 1581 1712 1825 1844 1856 1809 1690 1625 1784 1806 2002 2066 2006 2025 2041 2040 2154 2353 2418 2482 2525 2636 2626 2636 2699 2690 2677 2730 2767 2682 2635 2654 2674 2684 2672 2655 2642 2617 2593 2570 2524 2439 2318 2246 2216 2144 2071 1882 1764 1696 1743 1627 1518 1517 1592 1848 2020 2159 2260 2263 2195 2081 2014 1938 1890
1258 1252 1229 1198 1197 1202 1241 1302 1333 1357 1332 1344 1332 1319 1309 1294 1347 1414 1424 1462 1548 1619 1721 1808 1913 1955 1940 1825 1733 1770 1824 1866 1928 2006 2065 2104 2143 2266 2410 2474 2517 2579 2627 2692 2736 2754 2765 2737 2753 2780 2827 2822 2731 2687 2687 2693 2701 2707 2690 2677 2670 2648 2626 2574 2478 2377 2243 2054 2048 2009 2012 2105 2309 2478 2596 2606 2632 2641 2593 2547 2508 2386 2183 2236 2214
1295 1295 1295 1279 1273 1261 1254 1270 1325 1359 1389 1383 1369 1369 1373 1374 1486 1502 1506 1534 1555 1629 1666 1721 1809 1906 2011 2071 1924 1890 1862 1860 1886 1906 1927 1973 2034 2104 2148 2375 2473 2522 2626 2703 2794 2855 2889 2885 2856 2915 2826 2679 2686 2713 2846 2720 2710 2704 2694 2672 2682 2713 2739 2721 2675 2578 2484 2432 2400 2532 2614 2752 2841 2836 2804 2836 2780 2724 2722 2727 2352 1978 1772 1823 1980
1330 1346 1359 1372 1371 1364 1350 1354 1359 1393 1476 1418 1436 1447 1452 1510 1471 1575 1615 1678 1693 1697 1705 1745 1756 1818 1896 1971 2058 2106 2095 1993 1968 1975 1996 2008 1988 1967 1980 2117 2346 2448 2535 2677 2769 2853 2920 2921 2969 2956 2952 2915 2861 2804 2791 2805 2852 2742 2671 2652 2646 2687 2710 2679 2646 2639 2545 2707 2799 2871 2962 2970 3009 2990 2919 2840 2780 2218 2155 2042 1790 1952 2208 2364 2362
1393 1408 1424 1434 1455 1456 1467 1456 1448 1434 1527 1558 1595 1613 1616 1607 1600 1634 1701 1753 1794 1823 1841 1841 1832 1812 1820 1804 1930 2004 2079 1977 2018 2045 2072 2085 2094 2082 2072 2082 2149 2312 2522 2611 2663 2757 2838 2911 2939 2983 2986 3011 2962 2874 2888 2926 2871 2814 2782 2754 2631 2609 2636 2658 2638 2756 2842 2925 2979 2996 3049 3055 3083 3104 3053 3040 2752 2362 2228 2076 2466 2134 2282 2124 2132
1491 1495 1499 1516 1520 1536 1537 1539 1617 1619 1599 1652 1685 1709 1717 1714 1714 1712 1758 1792 1840 1909 1950 1912 1882 1879 1790 1788 1809 1829 1948 1851 1915 1992 2069 2106 2115 2118 2116 2121 2163 2178 2274 2450 2564 2651 2692 2797 2814 2833 2882 2895 2750 2670 2684 2735 2926 2944 2977 2882 2811 2678 2675 2684 2858 2941 2964 2992 3040 3087 3137 3140 3155 3194 3173 3024 2842 2714 2405 2195 2287 2209 2046 1962 2257
1673 1672 1665 1594 1601 1642 1697 1717 1735 1749 1759 1766 1790 1801 1797 1820 1820 1801 1824 1856 1886 1893 1955 1971 2025 1971 1882 1865 1845 1825 1821 1820 1833 1861 1927 2005 2059 2101 2113 2120 2113 2124 2146 2279 2418 2523 2580 2622 2652 2732 2801 2802 2593 2585 2608 2626 2640 2752 2844 2880 2815 2647 2767 2868 2969 3049 3134 3218 3268 3303 3264 3196 3107 3047 2859 2711 2752 2685 2541 2448 2426 2195 2407 2394 2544
1853 1853 1828 1787 1807 1775 1795 1830 1848 1882 1900 1905 1917 1904 1860 1840 1935 2029 2113 2120 2175 2175 2170 2136 2053 2013 1939 1913 1905 1894 1896 1870 1844 1843 1839 1844 1888 1954 1989 1989 2017 2021 2029 2043 2187 2329 2461 2258 2432 2644 2697 2690 2489 2487 2519 2558 2604 2636 2618 2701 2815 2887 2958 3017 3170 3289 3386 3381 3300 3268 3300 3092 3079 3108 3016 2967 2940 2806 2763 2618 2620 2438 2256 2099 1985
2014 2021 2020 1970 1951 1929 1918 1942 1940 1973 1947 1944 2035 2204 2289 2343 2381 2426 2439 2450 2448 2439 2464 2430 2357 2247 2144 2027 1954 1953 1938 1914 1884 1880 1875 1854 1831 1831 1844 1868 1880 1904 1928 1943 1957 2136 2260 2198 2154 2240 2496 2539 2440 2457 2501 2468 2628 2720 2821 2921 2997 3046 3131 3225 3295 3444 3541 3585 3415 3225 2949 3218 3220 3167 3256 3140 2609 2174 1977 1824 1680 1580 1590 1466 1432
2133 2148 2154 2182 2188 2162 2127 2131 1945 2075 2228 2355 2528 2607 2659 2727 2750 2754 2732 2759 2805 2820 2866 2864 2793 2706 2570 2443 2312 2154 2020 1970 1928 1923 1913 1898 1867 1851 1831 1817 1818 1831 1862 1877 1876 1970 2072 2190 2120 2093 2167 2260 2295 2440 2618 2754 2834 2897 3005 3131 3221 3355 3439 3496 3538 3444 3407 2976 3051 3271 3429 3501 3418 2808 2102 1536 1246 1144 1133 1104 1106 1035 981 972 1039
2225 2315 2386 2414 2421 2433 2377 2252 2257 2462 2607 2758 2871 2905 2965 2969 2977 2992 2995 3012 3013 3072 3118 3119 3070 3018 2937 2867 2744 2586 2411 2226 2046 1954 1938 1913 1892 1875 1867 1860 1841 1846 1846 1847 1928 2060 2161 2176 2293 2073 2184 2375 2588 2754 2874 2922 3061 3199 3287 3412 3594 3776 3826 3840 3854 3606 3307 3398 3411 3364 2780 2213 1611 795 782 860 795 780 846 889 831 788 789 699 667
2327 2482 2610 2678 2682 2684 2664 2647 2604 2400 2708 2934 3064 3087 3150 3176 3208 3162 3175 3183 3207 3239 3265 3273 3270 3239 3185 3113 3009 2889 2761 2615 2447 2252 2056 1907 1860 1850 1844 1851 1836 1841 1843 1981 2052 2077 2108 2195 2316 2407 2500 2680 2829 2942 3041 3171 3299 3461 3644 3849 3976 4060 3991 3789 3660 3541 3347 2570 2447 2161 1227 303 254 287 172 126 128 144 121 139 153 284 654 854 842
2490 2615 2770 2878 2968 2994 2987 2936 2828 2629 2794 3034 3169 3238 3282 3319 3347 3344 3357 3356 3358 3382 3412 3432 3426 3414 3381 3310 3212 3106 2980 2868 2725 2538 2354 2177 2013 1901 1850 1833 1849 1888 1938 1995 2046 2115 2209 2329 2469 2610 2757 2854 3011 3204 3345 3482 3615 3806 3931 4033 4075 3941 3791 3669 3256 2620 2509 2180 882 30 30 47 27 15 26 31 13 12 3 4 17 45 98 161 327
2670 2727 2804 2957 3118 3270 3309 3303 3160 2947 3106 3249 3350 3394 3422 3436 3450 3470 3492 3486 3483 3503 3522 3540 3554 3554 3533 3484 3402 3309 3186 3072 2950 2794 2620 2452 2306 2196 2132 2090 2112 2150 2194 2254 2314 2367 2441 2541 2675 2761 2974 3198 3396 3534 3597 3718 3880 3963 4031 3978 3697 3418 3013 2880 2805 2073 478 0 0 0 0 0 0 0 0 0 0 0 0 0 0 3 8 10 12
2706 2806 2909 2941 2990 3293 3456 3563 3466 3306 3368 3453 3524 3555 3549 3564 3597 3602 3597 3605 3607 3614 3626 3634 3649 3647 3600 3578 3519 3440 3350 3247 3120 2985 2833 2671 2525 2422 2329 2309 2327 2361 2399 2435 2469 2517 2577 2652 2933 3231 3432 3599 3675 3674 3739 3876 4006 4030 3719 3319 3128 2878 2594 1699 0 0 0 0 0 0 0 0 0 0 0 1 2 0 2 2 3 5 6 8 10
3211 3293 3339 3361 3384 3424 3464 3507 3510 3547 3570 3592 3634 3651 3669 3700 3716 3735 3704 3708 3683 3689 3712 3721 3724 3711 3711 3676 3621 3553 3468 3377 3260 3114 2979 2826 2676 2565 2491 2421 2448 2483 2528 2563 2612 2642 2862 3122 3206 3426 3527 3614 3663 3749 3950 4064 3845 3410 3227 2958 2623 1875 560 0 0 0 0 0 0 0 0 0 0 0 0 0 1 0 3 7 9 7 7 10 11
3535 3573 3622 3649 3676 3709 3724 3747 3749 3730 3714 3707 3722 3728 3743 3767 3790 3808 3805 3818 3788 3774 3770 3788 3788 3778 3775 3743 3695 3626 3568 3470 3369 3238 3090 3007 3000 2974 2916 2856 2737 2622 2613 2707 2852 3030 3192 3332 3432 3465 3535 3654 3760 3970 3906 3501 3333 3222 2898 2302 1435 0 0 0 0 0 0 0 0 0 0 0 0 0 0 0 1 1 4 10 10 8 9 9 13
3660 3359 3341 3433 3609 3678 3713 3796 3821 3779 3781 3780 3849 3857 3864 3863 3848 3831 3822 3821 3832 3846 3851 3849 3851 3832 3788 3758 3713 3662 3592 3522 3426 3296 3248 3329 3395 3394 3333 3238 3110 3002 2980 3069 3217 3355 3487 3524 3631 3742 3787 3949 4007 3749 3455 3349 3071 2604 2043 784 0 0 0 0 0 0 0 0 0 0 0 0 0 0 0 0 0 1 4 8 7 6 6 9 7
4627 4334 3776 3317 3182 3382 3547 3624 3676 3710 3740 3767 3815 3886 3936 3916 3938 3931 3906 3912 3931 3938 3912 3890 3888 3856 3817 3756 3736 3684 3612 3544 3454 3410 3604 3727 3793 3780 3699 3576 3464 3372 3370 3545 3649 3692 3771 3856 3988 4037 3920 3632 3338 3341 3105 2630 2287 1671 0 0 0 0 0 0 0 0 0 0 0 0 0 0 0 0 0 0 0 0 2 5 5 8 6 7 11
4543 4600 4416 4144 3697 3377 3313 3458 3554 3632 3683 3726 3746 3826 3858 3903 3976 3947 3994 3958 3965 3960 3935 3948 3941 3914 3898 3846 3771 3763 3782 3844 3959 4032 4067 4042 3984 3941 3881 3831 3813 3757 3768 3896 4010 4150 4201 4159 3998 3543 3183 3194 3281 2963 2657 2135 1053 122 4 0 0 0 0 0 0 0 0 0 0 0 0 0 0 0 0 0 0 0 0 0 4 7 9 7 5
4350 4490 4351 4366 4228 3883 3516 3434 3494 3562 3617 3660 3709 3781 3784 3837 3894 3945 3946 3945 3985 3984 3977 3968 3950 3941 3907 3918 3944 4073 4166 4199 4248 4266 4246 4218 4192 4061 3982 3894 3859 3968 4077 4137 4083 3968 3758 3543 3388 3362 3405 2967 2850 2544 1861 491 123 0 0 0 0 0 0 0 0 0 0 0 0 0 0 0 0 0 0 1 1 1 1 2 7 8 8 6 4
4228 4328 4401 4298 4103 3980 3799 3638 3633 3651 3655 3661 3702 3722 3768 3757 3736 3860 3922 3975 3934 3968 4012 4021 4019 4014 4034 4094 4257 4382 4404 4446 4460 4457 4444 4301 4183 4140 4058 3949 3865 3794 3687 3507 3423 3319 3289 3390 3436 3135 2862 2474 1971 1126 228 127 0 0 0 0 0 0 0 0 0 0 0 0 0 0 0 0 0 0 0 0 1 1 2 3 6 7 4 3 3
3915 4178 4332 4418 4264 4022 3818 3757 3748 3760 3750 3738 3742 3744 3745 3732 3783 3721 3858 3942 4012 4050 4068 4086 4156 4202 4349 4522 4655 4686 4702 4679 4590 4508 4467 4273 4034 3992 3916 3760 3623 3571 3465 3450 3391 3394 3362 3239 3056 2546 2052 1124 333 222 103 0 1 0 0 0 0 0 0 0 0 0 0 0 0 0 0 0 0 0 0 0 0 1 1 4 7 8 5 6 4
3808 4008 4257 4406 4461 4338 4037 3875 3859 3872 3851 3822 3814 3817 3806 3829 3750 3783 3778 3808 3986 4155 4228 4331 4416 4494 4688 4848 4907 4960 4932 4818 4598 4382 4379 4200 3974 3816 3678 3544 3435 3472 3446 3375 3276 3173 2978 2905 2644 1932 840 274 174 1 0 1 1 0 0 1 1 1 0 0 0 0 0 0 0 0 0 0 0 0 0 0 0 0 1 4 5 3 3 3 6
3760 3950 4136 4335 4414 4450 4327 4132 4009 4000 3994 3993 3987 3943 3957 3934 3938 3962 3896 4017 4036 4112 4324 4519 4671 4834 4898 4916 4932 4930 4877 4833 4571 4322 4103 3907 3718 3676 3679 3596 3623 3352 3090 3003 2979 2955 2821 2582 2336 1715 347 1 1 1 1 1 0 0 0 0 1 1 0 0 0 0 0 0 0 0 0 0 0 0 0 0 0 0 1 2 6 4 3 4 7
3660 3802 4050 4196 4338 4400 4405 4340 4240 4142 4055 4059 4056 4097 4077 4090 4150 4199 4268 4388 4478 4443 4478 4685 4862 4872 4814 4783 4725 4685 4586 4478 4315 4102 3796 3684 3528 3562 3469 3365 3150 2998 3069 3032 2949 2804 2582 2500 2108 502 1 1 1 1 0 0 0 1 1 0 0 0 0 0 0 0 0 0 0 0 0 0 0 0 0 0 0 0 0 0 3 0 0 0 3
3386 3594 3807 4027 4231 4339 4404 4379 4382 4318 4273 4229 4196 4212 4249 4301 4333 4393 4477 4562 4649 4635 4637 4554 4365 4245 4133 4250 4264 4158 4238 4127 3827 3727 3588 3326 3719 2947 2500 2624 2756 2797 2766 2440 2509 2574 2306 959 1 1 1 1 1 1 1 0 1 1 0 0 0 0 0 0 0 0 0 0 0 0 0 0 0 0 0 0 0 0 0 0 0 0 0 0 0
3049 3254 3485 3701 3978 4200 4318 4425 4420 4422 4374 4374 4366 4318 4339 4382 4447 4512 4566 4616 4613 4602 4410 4129 3883 3742 3659 3471 3344 3950 4006 3646 3690 3742 3520 3078 2867 2488 2318 2556 2684 2688 2255 2014 2089 1861 1449 629 2 1 1 2 1 1 1 0 0 0 0 0 0 0 0 0 0 0 0 0 0 0 0 0 0 0 0 0 0 0 0 0 0 0 0 0 0
2445 2838 3065 3374 3568 3729 3953 4212 4377 4472 4556 4592 4616 4615 4619 4538 4486 4429 4381 4397 4443 4394 4214 3998 3809 3728 3703 3629 3724 3606 3405 3207 2994 3017 2893 2633 2534 2443 2391 2157 1609 1262 1216 1377 1459 1237 573 0 1 1 1 1 1 0 0 0 0 0 0 0 0 0 0 0 0 0 0 0 0 0 0 0 0 0 0 0 0 0 0 0 0 0 0 0 0
2107 2254 2604 2959 3176 3338 3518 3716 3998 4252 4393 4457 4441 4508 4593 4458 4350 4280 4191 4081 4219 4276 4118 3894 3752 3661 3529 3309 3213 2986 2807 2724 2691 2666 2662 2585 2294 2034 1733 1622 1460 1457 1394 1248 856 1 2 1 0 0 0 0 0 0 0 0 0 0 0 0 0 0 0 0 0 0 0 0 0 0 0 0 0 0 0 0 0 0 0 0 0 0 0 0 0
1744 2014 2237 2577 2844 2968 3074 3252 3478 3777 4022 4112 4155 4140 4065 4002 3949 3959 3993 3970 4062 4084 3911 3815 3538 3137 3120 3098 2917 2655 2476 2457 1777 1215 1266 1320 1370 1458 1184 1360 1221 1097 1021 905 0 0 0 0 0 0 0 0 0 0 0 0 0 0 0 0 0 0 0 0 0 0 0 0 0 0 0 0 0 0 0 0 0 0 0 0 0 0 0 0 0
1335 1521 1881 2161 2481 2781 2760 2820 2982 3168 3399 3635 3745 3797 3838 3614 3367 3372 3488 3649 3588 3556 3415 3399 3147 2862 2777 2863 2718 2448 2424 2526 2048 1266 1150 1260 1250 1311 1322 1032 55 0 0 0 0 0 0 0 0 0 0 0 0 0 0 0 0 0 0 0 0 0 0 0 0 0 0 0 0 0 0 0 1 0 0 0 0 0 0 0 0 0 0 0 0
1120 1238 1431 1623 1891 2297 2525 2531 2642 2880 3013 3061 3192 3228 3326 3006 2852 2400 2402 2476 2591 2680 3068 3124 3085 2905 2844 2812 2438 1443 1044 1082 1286 1406 955 657 459 136 186 56 0 0 0 0 0 0 0 0 0 0 0 0 0 0 0 0 0 0 0 0 0 0 0 0 0 0 0 0 0 0 0 0 0 0 0 0 0 0 0 0 0 0 0 0 0
909 998 1126 1338 1620 1872 2143 2481 2556 2750 2978 2926 2788 2697 2569 2669 2739 2412 2057 2162 2311 2641 2794 2846 2694 2734 2086 1413 1089 1044 1229 1360 1345 1322 1175 564 0 0 0 0 0 0 0 0 0 0 0 0 0 0 0 0 0 0 0 0 0 0 0 0 0 0 0 0 0 0 1 1 0 0 0 0 0 0 0 0 0 0 0 0 0 0 0 0 0
802 855 950 1108 1311 1531 1716 1858 2154 2428 2741 2910 2750 2612 2497 2612 2774 2549 2374 2269 2329 2402 2391 1621 829 584 558 767 1161 1264 1120 1072 1024 956 737 0 0 0 0 0 0 0 0 0 0 0 0 0 0 0 0 0 0 0 0 0 0 0 0 0 0 0 0 0 0 0 0 1 1 0 0 0 0 0 0 0 0 0 0 0 0 0 0 0 0
695 778 889 1032 1179 1309 1377 1479 1628 1834 2142 2394 2564 2373 2216 2217 2076 2020 1962 1924 1825 1483 1581 1263 702 613 695 954 1034 1085 1020 868 698 486 73 0 0 0 0 0 0 0 0 0 0 0 0 0 0 0 0 0 0 0 0 0 0 0 0 0 0 0 0 0 0 0 0 0 0 0 0 0 0 0 0 0 0 0 0 0 0 0 0 0 0
620 717 830 934 1056 1169 1270 1306 1369 1617 1687 1714 1950 2184 2138 2185 2205 2087 1671 1401 1321 1207 1014 828 854 753 750 840 840 890 855 705 558 0 2 3 5 5 3 3 1 1 0 0 0 0 0 0 0 0 0 0 0 0 0 0 0 0 0 0 0 0 0 0 0 0 0 0 0 0 0 0 0 0 0 0 0 0 0 0 0 0 0 0 0
563 640 730 870 936 1043 1092 1080 1008 1000 1057 1174 1245 1344 1466 1566 1385 944 1149 1099 1032 991 924 881 925 963 876 759 712 647 685 716 500 12 4 4 2 1 2 3 2 2 2 2 3 2 1 1 0 0 0 0 0 0 0 0 0 0 0 0 0 0 0 0 0 0 0 0 0 0 0 0 0 0 0 0 1 0 0 0 0 0 0 0 0
506 562 652 752 867 907 945 948 845 743 707 748 721 683 628 769 860 843 752 526 561 794 844 746 637 546 650 747 578 383 84 348 168 0 1 0 0 0 0 0 3 2 3 2 3 4 5 5 3 2 1 0 0 0 1 0 1 0 0 0 0 0 0 0 0 0 0 0 0 0 0 0 0 0 0 3 2 0 0 0 0 0 0 0 0
447 473 563 598 677 741 832 905 924 899 912 836 770 726 660 603 566 591 582 650 664 606 625 642 582 529 456 430 394 324 10 7 4 2 1 1 3 7 6 3 4 3 0 0 3 4 5 5 6 6 4 3 5 3 1 2 4 3 1 0 0 0 2 0 0 0 0 0 0 0 0 0 3 2 1 0 0 0 0 0 0 0 0 0 0
428 394 410 444 486 616 730 776 852 775 738 737 607 578 548 561 528 446 434 359 308 322 410 309 11 8 6 114 118 3 8 6 5 6 4 4 9 12 14 11 8 6 4 3 2 0 0 0 1 0 3 6 11 8 4 1 3 5 5 2 8 12 11 10 6 0 0 0 0 0 0 9 4 2 2 0 0 0 0 0 0 0 0 0 0
Wind_Speed
11 12 14 14 14 13 14 16 15 15 14 13 13 12 12 10 9 10 12 10 8 7 5 2 0 2 3 4 4 5 5 5 5 6 7 8 8 9 9 11 11 9 9 9 10 12 13 11 10 9 5 5 5 5 5 6 5 5 5 5 6 6 9 11 13 17 12 nan nan 10 8 nan 11 15 16 16 16 18 20 21 22 22 23 23 24
10 12 14 14 12 14 15 16 15 16 13 13 13 13 12 11 11 12 10 10 8 6 4 4 3 3 5 6 6 6 6 6 7 7 7 8 8 7 9 10 9 8 7 8 8 9 11 11 9 7 5 6 5 6 5 5 6 6 6 7 9 10 11 12 14 13 17 10 11 11 11 13 13 15 18 18 18 18 20 21 21 23 23 23 24
10 13 14 13 12 14 15 16 15 14 13 15 15 14 15 12 13 11 11 11 10 8 6 6 5 6 6 7 8 7 8 8 8 8 7 8 8 8 8 9 9 8 8 7 7 6 9 10 9 5 2 4 5 5 5 6 5 6 8 8 10 11 12 14 13 14 14 14 12 11 12 14 18 16 18 17 18 19 20 21 23 24 25 25 25
11 12 12 12 12 13 14 15 14 14 15 15 15 15 16 15 14 12 12 13 11 10 8 7 7 8 8 8 9 8 8 9 9 9 8 7 7 7 8 8 7 6 6 6 5 6 7 8 8 5 1 3 4 4 4 5 6 7 8 9 10 12 12 12 14 14 12 13 12 11 10 11 13 15 16 17 18 21 22 21 23 25 28 30 30
12 11 11 10 11 13 13 14 13 13 14 18 16 17 17 17 16 13 14 13 11 12 10 10 9 9 9 9 9 9 9 9 9 9 8 6 6 5 6 6 6 5 5 5 5 6 6 8 7 4 2 2 2 3 4 6 6 6 8 8 10 10 9 11 12 11 11 12 12 11 12 13 13 14 19 18 20 22 23 24 27 29 31 32 32
12 11 11 11 11 11 12 13 12 12 14 16 16 16 17 15 15 16 15 13 13 13 10 12 10 10 10 9 10 9 9 8 8 9 9 8 6 4 3 5 5 5 5 5 5 5 5 6 6 3 2 2 2 2 3 6 4 6 8 9 8 7 9 10 10 11 11 12 11 10 14 16 16 19 23 26 23 21 21 24 28 31 32 32 34
14 12 11 10 12 11 11 12 13 14 14 15 17 17 17 17 16 16 16 14 14 14 13 13 11 11 10 10 9 9 8 8 8 9 9 9 8 6 5 5 6 6 5 5 5 4 4 5 4 3 1 1 1 3 3 3 4 6 7 8 8 8 9 10 10 10 11 11 11 13 13 17 20 17 22 30 28 28 26 23 23 30 35 35 34
15 13 12 12 11 10 11 12 14 15 16 17 18 17 16 16 16 15 17 15 14 14 15 14 14 13 11 10 8 9 7 7 8 9 9 10 10 9 8 7 7 7 6 5 5 4 4 4 4 3 1 1 1 2 2 3 4 5 6 7 8 10 10 10 11 11 11 12 12 11 13 15 19 21 23 28 27 29 34 34 28 26 32 37 37
16 14 13 12 11 12 14 16 17 18 18 18 17 17 16 16 16 16 15 15 16 16 15 15 13 11 10 9 8 8 7 6 8 10 11 11 11 10 9 9 8 8 7 5 6 5 2 1 1 1 1 3 5 5 5 5 4 4 5 7 9 11 11 12 13 13 13 14 13 15 15 17 19 20 22 27 31 28 30 41 35 32 33 33 34
16 15 13 12 14 16 17 18 19 19 19 18 17 17 18 17 17 16 15 15 16 17 15 13 12 11 9 8 8 8 6 7 8 11 13 13 13 11 10 9 8 8 7 6 6 5 3 1 2 5 5 5 6 8 10 9 10 7 7 7 10 12 13 14 15 17 17 17 18 18 18 18 20 23 23 25 28 30 32 38 36 34 36 35 30
15 14 13 15 17 19 19 19 20 18 17 18 19 19 18 19 18 17 17 17 17 16 15 12 10 10 10 10 9 8 7 8 9 12 13 14 13 11 10 9 9 8 7 6 5 5 3 3 4 5 5 5 7 10 9 11 12 14 15 15 15 16 15 15 15 17 18 18 18 20 22 19 20 24 26 24 28 31 32 36 39 38 39 35 30
14 14 15 17 18 18 19 19 19 17 18 17 18 19 20 20 19 18 18 17 17 16 13 10 9 10 10 9 8 7 7 7 9 11 13 14 13 11 11 10 9 8 7 6 5 5 4 4 4 4 3 3 3 3 7 12 15 16 18 19 20 21 21 20 18 18 21 21 20 22 24 23 22 24 28 31 30 32 37 39 41 41 38 39 43
15 15 16 16 16 16 17 17 16 16 16 17 19 20 18 18 17 17 16 16 17 14 11 10 10 10 10 9 7 8 8 8 9 10 12 14 14 12 9 8 9 8 6 5 4 4 5 5 4 3 2 5 4 5 6 9 15 20 21 21 20 21 22 23 23 23 21 21 21 21 25 25 24 27 32 33 35 36 39 42 44 45 48 46 46
15 15 16 15 16 16 16 15 15 15 17 18 18 17 16 15 16 18 18 17 15 12 10 9 9 9 9 9 8 8 9 8 10 11 12 14 14 13 9 8 7 5 3 4 4 4 4 4 3 3 0 3 5 8 9 11 12 16 18 20 19 19 22 25 26 27 26 25 24 23 25 30 28 27 32 41 45 46 46 45 43 42 45 46 45
16 16 15 16 17 16 15 14 14 15 16 17 16 15 14 16 16 17 18 15 13 11 10 10 9 9 9 9 10 9 9 9 11 12 13 15 15 14 10 9 7 3 3 3 3 3 3 3 1 1 2 4 7 10 12 12 13 15 16 18 21 21 24 28 29 30 30 31 31 30 29 30 32 33 34 42 51 55 58 54 46 43 44 45 44
14 16 15 15 15 14 14 14 13 14 14 14 14 13 14 14 13 15 14 13 12 13 12 10 9 10 10 11 11 8 9 10 11 12 15 15 16 13 10 8 6 3 3 3 3 3 3 1 1 2 3 5 8 14 15 13 14 15 17 19 22 24 26 29 29 29 31 34 35 35 34 35 39 41 41 39 42 49 65 63 51 50 50 49 47
12 12 13 12 12 12 12 12 11 12 12 11 10 10 10 11 12 14 12 12 12 12 10 12 12 12 13 12 10 9 10 11 12 13 16 17 16 12 11 9 6 5 3 3 3 3 2 1 3 3 5 7 10 15 18 19 17 18 17 18 21 23 25 27 30 30 31 32 33 35 37 38 37 36 34 33 39 41 46 52 50 50 53 51 50
10 9 8 8 8 8 8 8 8 8 8 7 6 7 7 9 10 12 11 11 12 12 15 14 14 14 13 12 13 13 13 13 15 14 17 19 15 12 11 9 8 6 5 5 5 4 1 4 6 6 7 8 12 17 20 24 22 21 17 17 18 22 24 27 27 28 33 33 32 31 30 27 27 27 28 31 35 41 46 43 44 49 48 49 48
10 8 8 8 8 7 6 5 4 3 4 3 3 3 5 6 9 11 11 12 13 15 16 16 15 15 15 14 12 12 14 15 18 16 17 17 13 11 11 11 9 7 8 7 7 6 3 3 7 8 9 10 13 16 21 28 25 25 21 20 19 21 27 29 31 29 30 32 31 32 32 31 32 33 36 38 40 43 49 49 48 51 47 46 47
12 12 12 11 10 9 8 5 4 4 3 3 5 4 6 8 10 11 11 14 14 16 16 17 15 17 17 16 18 16 15 16 18 17 18 16 15 13 13 13 10 8 10 10 9 7 5 6 7 11 12 12 12 16 21 29 28 28 27 25 24 22 30 37 40 44 39 28 26 28 27 29 35 38 40 41 42 45 50 53 54 53 50 47 47
19 17 16 14 12 10 10 8 6 6 6 6 6 6 9 9 10 11 12 14 14 16 16 16 16 16 18 17 17 17 17 16 17 19 17 17 16 15 14 13 12 12 12 11 12 9 9 10 10 12 15 17 19 20 22 26 29 29 29 28 27 27 31 30 38 48 49 44 35 32 34 35 36 39 41 42 42 44 48 52 53 55 54 50 46
22 20 17 14 13 12 12 12 11 11 11 12 12 11 11 10 11 12 13 14 14 15 17 17 17 17 17 17 17 16 18 16 17 18 17 17 16 16 14 14 13 14 12 11 12 11 9 11 13 19 24 26 28 29 31 32 33 33 31 30 27 28 32 36 37 42 45 43 39 38 38 40 40 41 42 43 43 45 46 44 43 43 47 49 47
25 23 20 17 16 15 15 14 15 16 15 14 13 12 13 13 13 14 14 14 15 15 16 18 18 17 17 17 18 18 20 20 16 17 17 17 16 16 13 13 13 14 13 11 11 10 13 16 23 29 33 36 37 38 38 38 38 35 34 34 34 34 37 40 42 42 42 42 42 nan nan nan nan nan nan nan nan nan nan nan nan nan nan 41 39
31 27 23 21 19 19 18 17 17 18 18 18 16 15 16 16 15 15 15 15 16 16 17 18 18 17 17 17 18 19 21 21 20 17 19 17 16 16 13 10 14 15 14 13 14 18 22 24 27 32 36 37 38 37 37 38 37 40 38 38 39 41 42 43 43 43 42 nan nan nan nan nan nan nan nan nan nan nan nan nan nan nan nan nan nan
33 29 27 25 24 23 23 22 21 21 21 21 20 19 18 19 17 17 17 17 17 17 17 19 17 16 17 17 18 21 22 23 23 21 18 19 17 17 14 13 10 16 19 20 24 25 28 33 36 35 37 38 40 41 40 40 42 41 42 42 42 43 43 44 nan nan nan nan nan nan nan nan nan nan nan nan nan nan nan nan nan nan nan nan nan
34 32 30 29 27 27 26 26 25 24 24 25 23 22 20 19 18 19 19 18 18 17 16 17 16 16 16 17 19 20 24 25 25 27 23 22 20 18 16 16 17 20 22 26 29 33 34 35 38 39 40 40 39 39 39 40 42 43 43 43 43 44 45 nan nan nan nan nan nan nan nan nan nan nan nan nan nan nan nan nan nan nan nan nan nan
39 38 36 34 33 31 30 30 30 28 26 27 26 26 24 23 21 21 21 20 19 18 16 17 16 16 14 17 19 24 27 27 28 28 28 27 27 26 26 25 27 29 27 30 33 34 35 35 37 40 42 43 43 41 42 42 44 43 43 43 44 nan nan nan nan nan nan nan nan nan nan nan nan nan nan nan nan nan nan nan nan nan nan nan nan
41 40 40 41 39 36 33 33 31 30 28 28 28 28 27 26 24 23 24 24 24 22 20 19 17 17 16 17 22 27 28 28 28 27 28 29 29 31 30 31 30 29 30 31 33 36 38 40 43 41 41 41 40 41 42 42 43 43 44 45 nan nan nan nan nan nan nan nan nan nan nan nan nan nan nan nan nan nan nan nan nan nan nan nan nan
43 41 40 41 41 40 38 36 34 33 36 41 41 38 32 28 27 28 29 30 29 29 26 22 21 20 19 19 25 24 26 26 23 26 27 28 30 32 32 31 32 32 34 41 41 40 41 41 42 41 40 41 43 43 43 42 44 45 nan nan nan nan nan nan nan nan nan nan nan nan nan nan nan nan nan nan nan nan nan nan nan nan nan nan nan
46 43 42 41 42 42 40 40 40 42 43 42 42 43 45 43 41 34 35 38 35 30 30 27 25 25 23 21 21 21 20 20 30 33 31 31 30 30 32 36 38 41 44 47 44 43 41 42 41 41 42 43 43 44 44 44 45 46 nan nan nan nan nan nan nan nan nan nan nan nan nan nan nan nan nan nan nan nan nan nan nan nan nan nan nan
49 47 46 44 44 44 44 45 46 48 47 45 45 45 45 48 52 49 44 41 39 37 33 29 30 30 28 27 31 33 32 37 37 35 38 37 38 40 43 45 48 50 51 49 44 43 43 43 43 43 44 45 46 46 47 48 48 nan nan nan nan nan nan nan nan nan nan nan nan nan nan nan nan nan nan nan nan nan nan nan nan nan nan nan nan
48 48 47 48 47 48 49 50 50 51 50 48 47 47 49 49 50 54 53 50 50 49 45 38 32 32 32 35 35 33 33 36 38 39 41 44 45 46 47 50 50 51 47 48 48 45 43 45 45 45 46 48 48 48 49 49 nan nan nan nan nan nan nan nan nan nan nan nan nan nan nan nan nan nan nan nan nan nan nan nan nan nan nan nan nan
46 47 47 48 49 51 51 51 50 50 49 49 48 48 48 49 52 51 52 55 57 56 54 51 46 41 42 41 38 37 37 38 41 43 44 47 50 51 52 53 51 49 51 49 47 47 46 47 49 49 49 50 50 50 50 nan nan nan nan nan nan nan nan nan nan nan nan nan nan nan nan nan nan nan nan nan nan nan nan nan nan nan nan nan nan
42 41 43 45 47 47 48 47 46 46 46 46 46 46 46 49 49 49 49 47 50 52 55 56 53 52 50 49 50 49 47 46 46 46 48 50 52 53 54 53 54 50 48 48 48 49 50 50 51 51 51 51 50 nan nan nan nan nan nan nan nan nan nan nan nan nan nan nan nan nan nan nan nan nan nan nan nan nan nan nan nan nan nan nan nan
40 39 39 40 42 42 42 42 42 42 42 41 42 43 44 44 44 43 43 44 44 44 43 46 51 52 50 50 53 56 55 54 53 53 53 53 55 55 56 54 53 51 51 49 50 52 52 52 52 52 52 nan nan nan nan nan nan nan nan nan nan nan nan nan nan nan nan nan nan nan nan nan nan nan nan nan nan nan nan nan nan nan nan nan nan
38 38 38 38 39 38 38 37 37 36 36 36 37 39 39 39 38 39 41 41 42 43 43 43 45 49 56 56 53 57 59 57 56 57 57 54 49 47 55 54 54 53 53 51 52 53 53 53 53 53 nan nan nan nan nan nan nan nan nan nan nan nan nan nan nan nan nan nan nan nan nan nan nan nan nan nan nan nan nan nan nan nan nan nan nan
36 36 36 37 37 37 37 37 36 36 36 37 36 36 36 36 37 38 39 40 41 41 42 41 44 47 49 49 51 53 57 58 58 57 56 57 61 58 56 56 55 54 54 53 54 56 56 54 nan nan nan nan nan nan nan nan nan nan nan nan nan nan nan nan nan nan nan nan nan nan nan nan nan nan nan nan nan nan nan nan nan nan nan nan nan
38 37 37 38 38 39 38 38 38 39 37 36 36 36 36 36 37 38 40 41 42 42 41 41 42 43 46 45 44 42 48 51 58 58 57 58 59 59 59 59 57 56 56 56 55 56 55 54 nan nan nan nan nan nan nan nan nan nan nan nan nan nan nan nan nan nan nan nan nan nan nan nan nan nan nan nan nan nan nan nan nan nan nan nan nan
41 43 45 44 42 40 40 40 39 38 38 38 37 37 37 38 39 41 42 43 43 43 42 42 43 42 43 43 43 44 46 46 50 54 56 56 57 58 60 61 62 61 59 56 54 53 55 nan nan nan nan nan nan nan nan nan nan nan nan nan nan nan nan nan nan nan nan nan nan nan nan nan nan nan nan nan nan nan nan nan nan nan nan nan nan
41 41 44 47 44 44 43 43 43 42 40 40 40 40 42 41 41 43 44 44 43 43 44 45 46 43 42 42 42 43 48 50 52 53 55 54 55 56 58 60 60 59 59 58 58 nan nan nan nan nan nan nan nan nan nan nan nan nan nan nan nan nan nan nan nan nan nan nan nan nan nan nan nan nan nan nan nan nan nan nan nan nan nan nan nan
42 42 43 45 46 46 46 44 44 44 44 44 43 44 45 45 46 46 47 45 43 43 45 47 47 45 42 45 47 48 51 53 53 54 52 50 50 53 53 54 54 53 53 54 nan nan nan nan nan nan nan nan nan nan nan nan nan nan nan nan nan nan nan nan nan nan nan nan nan nan nan nan nan nan nan nan nan nan nan nan nan nan nan nan nan
43 44 45 45 47 47 48 48 46 46 47 47 46 46 47 48 49 49 47 45 45 43 43 42 43 46 52 62 62 61 56 54 54 55 54 53 52 52 52 54 nan nan nan nan nan nan nan nan nan nan nan nan nan nan nan nan nan nan nan nan nan nan nan nan nan nan nan nan nan nan nan nan nan nan nan nan nan nan nan nan nan nan nan nan nan
46 45 46 47 48 48 48 49 49 48 48 48 49 49 49 51 53 54 53 50 49 48 49 50 52 53 58 63 64 61 53 51 52 53 54 54 54 53 53 nan nan nan nan nan nan nan nan nan nan nan nan nan nan nan nan nan nan nan nan nan nan nan nan nan nan nan nan nan nan nan nan nan nan nan nan nan nan nan nan nan nan nan nan nan nan
47 47 48 50 50 51 51 51 53 53 52 54 53 52 53 53 54 56 57 55 54 54 56 56 55 57 58 60 59 56 53 53 54 54 55 56 nan nan nan nan nan nan nan nan nan nan nan nan nan nan nan nan nan nan nan nan nan nan nan nan nan nan nan nan nan nan nan nan nan nan nan nan nan nan nan nan nan nan nan nan nan nan nan nan nan
47 49 48 49 51 53 54 54 54 55 57 55 53 52 52 54 55 57 59 60 60 59 59 57 55 53 54 54 53 53 53 55 56 58 58 nan nan nan nan nan nan nan nan nan nan nan nan nan nan nan nan nan nan nan nan nan nan nan nan nan nan nan nan nan nan nan nan nan nan nan nan nan nan nan nan nan nan nan nan nan nan nan nan nan nan
48 50 51 50 51 51 53 54 55 57 56 55 55 55 54 54 55 57 60 61 62 64 63 60 56 54 53 53 54 54 54 56 58 59 nan nan nan nan nan nan nan nan nan nan nan nan nan nan nan nan nan nan nan nan nan nan nan nan nan nan nan nan nan nan nan nan nan nan nan nan nan nan nan nan nan nan nan nan nan nan nan nan nan nan nan
49 51 51 49 50 52 52 51 52 54 56 56 55 56 57 58 59 60 61 62 62 62 63 64 62 59 59 60 61 61 61 62 62 nan nan nan nan nan nan nan nan nan nan nan nan nan nan nan nan nan nan nan nan nan nan nan nan nan nan nan nan nan nan nan nan nan nan nan nan nan nan nan nan nan nan nan nan nan nan nan nan nan nan nan nan
50 52 51 49 49 49 50 50 51 54 54 56 56 56 56 58 61 63 62 63 62 60 61 62 63 61 61 62 64 65 64 64 64 nan nan nan nan nan nan nan nan nan nan nan nan nan nan nan nan nan nan nan nan nan nan nan nan nan nan nan nan nan nan nan nan nan nan nan nan nan nan nan nan nan nan nan nan nan nan nan nan nan nan nan nan
50 51 51 50 51 51 51 50 48 48 53 55 57 58 58 59 61 62 63 62 61 61 60 63 63 63 63 63 64 65 nan 65 65 nan nan nan nan nan nan nan nan nan nan nan nan nan nan nan nan nan nan nan nan nan nan nan nan nan nan nan nan nan nan nan nan nan nan nan nan nan nan nan nan nan nan nan nan nan nan nan nan nan nan nan nan
48 50 51 51 52 53 53 53 53 55 58 59 63 63 63 62 63 64 66 67 67 66 65 66 68 68 68 69 69 70 nan nan nan nan nan nan nan nan nan nan nan nan nan nan nan nan nan nan nan nan nan nan nan nan nan nan nan nan nan nan nan nan nan nan nan nan nan nan nan nan nan nan nan nan nan nan nan nan nan nan nan nan nan nan nan
50 51 52 53 54 55 56 58 60 62 64 65 65 66 67 68 67 67 68 70 71 70 70 70 nan nan nan 74 75 nan nan nan nan nan nan nan nan nan nan nan nan nan nan nan nan nan nan nan nan nan nan nan nan nan nan nan nan nan nan nan nan nan nan nan nan nan nan nan nan nan nan nan nan nan nan nan nan nan nan nan nan nan nan nan nan
Wind_Direction
236 220 213 202 199 194 191 194 197 199 197 191 186 188 192 191 188 181 189 171 165 155 141 138 266 318 322 330 326 336 336 334 328 329 343 350 353 356 349 357 11 24 25 31 34 32 35 47 55 49 29 39 43 32 33 31 29 34 24 26 43 41 34 39 55 72 63 nan nan 38 19 nan 19 11 16 11 7 2 3 2 359 358 358 357 359
240 231 221 210 202 196 194 197 200 201 198 192 186 189 190 189 190 193 184 174 177 173 180 202 232 288 291 315 321 319 323 326 322 319 333 343 350 338 344 351 3 13 7 31 27 27 30 42 60 53 19 39 35 41 39 39 33 30 24 19 28 32 25 30 44 45 74 31 35 15 24 2 19 357 5 4 7 358 359 355 352 354 355 355 354
244 235 228 219 206 199 200 202 203 201 197 192 189 190 191 191 195 189 180 186 186 194 209 221 243 266 286 297 306 315 318 317 311 318 330 345 347 345 343 345 353 357 359 15 20 11 23 32 52 54 3 37 46 53 44 52 45 43 41 23 32 31 21 24 28 45 53 61 17 29 14 3 4 10 1 1 0 353 355 352 350 347 347 350 350
238 237 232 223 214 206 203 205 206 203 199 192 189 189 193 194 195 186 185 193 200 207 218 233 248 267 284 290 297 304 310 309 310 318 338 346 348 352 343 340 343 347 350 355 354 352 13 20 39 44 5 39 53 48 45 45 42 41 43 41 37 41 30 18 29 36 45 56 41 30 23 8 11 1 355 351 354 350 349 345 339 345 345 343 346
232 233 232 227 218 208 204 207 207 205 200 197 191 194 195 197 194 190 195 197 206 219 225 241 255 267 274 287 292 299 310 315 318 319 327 337 349 347 339 328 326 331 334 337 330 341 350 4 29 24 310 34 71 64 40 35 36 29 40 44 43 44 33 27 32 26 34 35 45 19 6 5 4 355 338 345 347 345 342 341 339 340 340 341 338
227 228 224 220 214 210 205 207 207 207 205 200 196 196 196 195 195 195 199 202 213 223 237 243 255 264 270 279 287 295 303 311 320 325 323 326 329 324 309 302 304 303 309 313 323 325 329 348 16 14 322 346 61 72 46 46 29 36 43 51 51 40 38 35 29 30 26 30 24 27 0 356 359 355 338 334 342 342 338 334 333 334 334 332 335
224 222 221 218 212 206 204 205 207 209 208 201 199 197 197 197 198 198 202 206 216 225 235 244 248 257 266 275 284 293 302 308 314 320 324 323 321 312 296 284 279 278 283 297 304 333 344 337 355 360 358 325 20 58 54 32 18 34 33 46 40 30 31 26 18 22 20 22 16 6 1 349 345 354 335 326 334 334 331 334 339 331 326 328 330
222 220 218 212 206 201 199 204 207 207 207 204 199 196 197 198 197 200 208 211 218 227 236 243 247 252 263 271 279 284 299 309 312 312 313 313 306 303 294 285 279 275 273 276 283 290 300 315 350 352 350 313 348 54 6 31 347 28 21 17 20 16 18 5 0 2 4 4 360 0 355 349 337 336 325 321 325 327 326 327 337 337 325 324 328
221 217 212 206 202 201 200 202 204 205 206 204 198 196 197 199 202 207 212 214 220 229 237 245 253 259 263 270 277 283 295 304 295 297 304 310 302 301 297 288 282 272 270 270 267 271 287 348 31 48 58 70 44 39 31 17 359 22 38 360 17 7 2 353 345 342 343 347 348 341 344 344 337 330 329 327 326 334 322 320 331 331 323 323 327
220 214 207 203 203 204 203 202 204 206 206 202 197 196 199 202 207 211 215 219 226 234 241 249 252 255 261 266 269 271 277 274 293 322 315 303 300 294 291 287 279 269 261 252 253 267 275 226 137 93 84 71 58 49 47 38 30 26 45 5 3 355 350 343 338 333 337 342 344 337 342 344 332 328 328 327 324 322 324 323 327 326 316 320 326
220 214 207 207 208 207 206 203 206 206 203 201 200 200 201 206 209 213 218 225 232 239 245 249 250 251 257 260 264 263 261 263 307 311 322 325 305 296 294 284 272 263 256 247 241 247 226 172 151 124 105 91 73 60 53 38 30 32 38 35 16 6 1 356 351 344 342 351 351 343 338 342 336 327 327 331 324 328 329 325 323 317 314 316 328
220 215 211 212 210 210 208 210 209 206 206 204 206 207 208 209 212 217 224 230 234 239 242 245 247 251 255 266 267 264 257 272 300 312 319 324 315 299 280 271 262 255 248 242 231 219 188 172 168 170 141 91 69 38 29 29 23 19 23 25 22 14 359 348 345 341 345 351 352 350 339 340 345 338 331 326 328 328 324 319 316 311 312 321 324
217 214 214 214 212 212 212 214 213 212 211 212 214 216 216 216 219 225 230 234 236 238 236 238 244 251 256 268 272 263 259 279 304 320 320 319 324 308 282 275 260 251 244 233 214 193 183 185 170 172 151 59 38 8 357 1 0 9 12 14 14 9 358 354 356 354 345 346 349 359 346 342 349 347 337 333 328 325 315 306 301 315 325 323 320
215 214 213 212 212 214 215 215 215 216 218 221 223 224 225 225 228 230 232 236 237 234 234 237 241 248 255 261 261 259 266 281 311 325 320 317 318 309 279 276 259 247 223 212 209 199 183 187 170 156 271 343 342 342 344 350 345 338 342 335 336 350 347 346 355 4 354 340 350 359 355 339 349 353 345 334 332 324 310 309 318 328 323 319 320
210 210 209 211 213 215 218 218 220 222 225 228 230 231 234 233 236 237 236 238 237 235 238 242 244 249 253 258 256 259 263 291 305 318 316 314 315 307 274 265 251 215 186 186 176 176 175 197 145 81 34 341 335 342 336 335 330 327 332 335 336 334 328 327 333 334 334 337 351 355 356 349 349 353 347 337 334 327 322 322 334 330 317 314 319
206 208 209 212 215 217 221 221 222 225 229 233 235 235 237 239 241 240 237 234 232 232 235 243 251 257 261 262 263 267 264 294 302 307 309 309 313 287 272 259 248 207 187 201 191 185 177 168 46 5 14 354 354 351 342 331 322 325 326 328 327 324 325 328 339 341 337 337 340 343 342 351 348 344 343 336 328 324 315 320 327 325 320 321 323
197 205 207 210 213 216 219 222 223 226 230 234 235 235 235 233 231 232 233 232 234 238 242 244 246 251 257 265 274 268 261 279 297 301 301 307 293 271 264 249 240 231 216 227 212 204 212 306 331 341 351 344 346 341 338 330 321 321 326 325 323 320 318 316 332 346 348 351 356 354 357 355 347 343 342 339 330 326 317 319 326 322 319 320 319
187 195 189 193 196 202 208 214 220 227 229 232 233 230 230 230 236 239 240 240 238 241 241 241 245 249 258 266 270 266 263 274 294 297 301 305 299 274 259 258 246 243 228 227 225 221 242 12 353 341 335 335 343 336 332 318 312 318 326 326 324 318 316 316 316 322 337 348 351 347 342 337 333 339 344 343 341 328 321 326 329 320 319 318 318
178 177 171 177 177 176 181 185 195 215 218 206 216 229 237 244 246 247 241 240 240 242 246 247 249 251 254 258 271 275 263 271 290 298 303 308 300 266 263 255 250 242 240 231 236 236 244 300 348 343 335 339 342 322 311 307 307 312 320 317 321 322 319 317 317 318 306 305 313 316 321 328 330 332 334 342 341 334 327 329 324 321 322 321 320
182 185 187 187 183 181 181 183 189 209 202 190 203 209 226 233 241 247 246 243 245 247 251 251 257 254 255 257 255 261 263 263 277 297 300 305 309 274 263 262 254 248 246 247 240 248 259 269 298 331 344 339 314 301 302 309 307 307 311 317 316 325 302 300 301 301 301 311 318 318 324 327 328 329 328 328 330 331 331 331 329 324 324 323 323
194 194 195 192 190 191 194 198 206 206 208 213 219 219 229 241 251 255 254 251 253 254 258 258 258 257 257 259 257 260 260 263 268 290 296 302 303 294 268 270 259 253 251 251 251 252 262 272 281 301 310 310 311 310 310 311 311 308 311 318 322 299 290 303 304 307 313 321 325 324 323 322 323 325 325 326 328 329 329 329 327 324 324 326 325
197 199 200 198 201 205 207 206 209 210 212 218 222 223 229 242 251 260 257 258 263 264 262 260 259 259 258 260 260 260 261 271 260 279 295 297 298 309 276 269 267 259 254 248 252 254 262 273 273 281 288 290 294 295 299 305 310 308 310 311 303 299 303 304 305 307 313 318 322 324 324 322 321 322 325 327 329 331 330 327 324 323 324 326 326
204 206 206 208 214 219 221 223 220 218 220 226 232 233 237 245 254 260 267 269 272 273 272 268 265 261 257 257 257 258 258 259 275 267 285 295 300 305 308 273 274 263 256 251 259 262 262 267 270 279 284 286 288 292 296 300 298 302 304 304 308 305 303 305 305 306 309 314 319 nan nan nan nan nan nan nan nan nan nan nan nan nan nan 326 327
210 211 211 214 222 227 232 234 232 227 229 231 232 235 240 244 250 258 266 272 274 277 274 274 271 266 260 254 254 255 256 255 262 275 272 293 295 305 303 290 273 263 260 255 252 258 265 267 274 282 285 288 291 296 299 299 296 301 305 306 305 304 304 304 304 307 309 nan nan nan nan nan nan nan nan nan nan nan nan nan nan nan nan nan nan
215 212 212 215 220 226 232 236 237 233 232 237 237 237 242 246 248 252 261 266 271 275 278 280 282 276 262 255 252 252 253 253 253 263 280 284 296 297 295 289 285 267 256 254 258 260 267 274 281 284 286 289 293 294 293 295 296 299 301 301 302 301 303 303 nan nan nan nan nan nan nan nan nan nan nan nan nan nan nan nan nan nan nan nan nan
217 217 216 217 220 225 230 233 234 235 237 239 241 241 245 248 248 253 262 267 269 274 278 282 287 283 268 252 249 250 251 250 251 253 257 267 269 278 281 276 267 266 257 259 268 273 277 280 283 283 282 284 284 283 285 289 292 292 294 296 299 302 303 nan nan nan nan nan nan nan nan nan nan nan nan nan nan nan nan nan nan nan nan nan nan
220 219 219 219 220 225 230 229 229 232 238 240 241 242 242 242 242 247 255 260 263 267 273 275 281 280 274 256 250 250 252 251 249 251 255 259 259 261 261 259 266 271 268 267 270 271 275 277 276 276 276 277 279 281 284 287 289 291 295 298 300 nan nan nan nan nan nan nan nan nan nan nan nan nan nan nan nan nan nan nan nan nan nan nan nan
229 226 224 221 220 223 226 230 233 232 237 242 245 246 245 243 243 245 250 255 260 262 268 270 276 279 274 266 256 251 251 251 250 254 256 258 259 258 258 261 268 271 274 273 271 271 272 272 273 273 275 275 278 280 282 286 292 296 297 299 nan nan nan nan nan nan nan nan nan nan nan nan nan nan nan nan nan nan nan nan nan nan nan nan nan
234 234 231 228 225 223 224 226 229 232 235 233 231 234 235 244 247 244 243 250 257 261 262 263 266 266 266 267 263 258 254 253 256 261 264 269 269 263 261 266 267 270 275 276 270 269 270 271 273 275 276 278 280 283 287 291 293 296 nan nan nan nan nan nan nan nan nan nan nan nan nan nan nan nan nan nan nan nan nan nan nan nan nan nan nan
233 232 231 230 229 229 229 228 230 233 235 236 238 236 237 240 236 241 249 241 243 252 261 264 264 262 262 263 266 267 263 257 259 267 264 267 265 267 263 267 270 269 275 280 276 272 274 274 275 277 279 280 283 286 289 291 293 295 nan nan nan nan nan nan nan nan nan nan nan nan nan nan nan nan nan nan nan nan nan nan nan nan nan nan nan
229 230 231 230 231 232 233 233 234 235 236 239 240 241 240 236 236 238 239 243 247 249 253 256 264 267 266 263 248 239 248 254 265 267 265 266 266 265 266 270 273 276 279 274 270 273 275 276 276 276 278 281 284 287 289 291 292 nan nan nan nan nan nan nan nan nan nan nan nan nan nan nan nan nan nan nan nan nan nan nan nan nan nan nan nan
230 231 232 233 235 236 236 237 238 239 239 240 243 243 243 244 240 236 238 244 246 246 247 252 264 275 277 272 263 244 250 261 264 263 263 263 263 264 265 269 273 275 273 268 269 270 272 276 278 279 281 283 285 286 288 290 nan nan nan nan nan nan nan nan nan nan nan nan nan nan nan nan nan nan nan nan nan nan nan nan nan nan nan nan nan
233 235 236 238 239 241 241 242 243 246 248 248 247 247 249 250 251 248 245 246 248 247 245 244 251 267 272 273 273 271 270 268 267 265 265 264 263 263 262 262 265 268 266 265 269 271 273 276 278 280 281 283 284 286 289 nan nan nan nan nan nan nan nan nan nan nan nan nan nan nan nan nan nan nan nan nan nan nan nan nan nan nan nan nan nan
231 235 239 242 244 244 245 247 249 249 250 251 253 254 255 252 255 258 259 259 254 251 247 245 247 254 259 267 270 270 270 271 269 268 268 268 266 263 261 257 255 253 258 266 269 272 274 275 277 279 281 282 284 nan nan nan nan nan nan nan nan nan nan nan nan nan nan nan nan nan nan nan nan nan nan nan nan nan nan nan nan nan nan nan nan
229 233 239 240 241 244 245 247 249 250 251 253 254 255 255 256 259 262 264 264 263 260 259 253 248 250 256 260 268 270 270 268 267 265 262 262 264 267 264 260 258 257 257 260 265 269 272 274 277 279 281 nan nan nan nan nan nan nan nan nan nan nan nan nan nan nan nan nan nan nan nan nan nan nan nan nan nan nan nan nan nan nan nan nan nan
231 233 234 237 238 241 242 244 245 247 250 250 251 249 251 254 258 259 260 260 262 264 259 256 258 256 257 255 259 265 267 267 268 268 267 263 256 257 261 260 261 262 265 265 267 270 272 275 278 279 nan nan nan nan nan nan nan nan nan nan nan nan nan nan nan nan nan nan nan nan nan nan nan nan nan nan nan nan nan nan nan nan nan nan nan
234 235 238 239 240 241 242 243 243 245 245 248 250 250 252 252 253 256 257 260 261 262 262 265 265 261 258 258 260 263 267 267 266 264 263 263 262 260 262 264 266 267 268 270 271 272 273 274 nan nan nan nan nan nan nan nan nan nan nan nan nan nan nan nan nan nan nan nan nan nan nan nan nan nan nan nan nan nan nan nan nan nan nan nan nan
232 235 238 240 243 243 243 243 247 251 250 251 252 254 255 255 255 256 258 260 264 265 265 265 263 266 268 269 269 271 272 268 266 262 260 259 261 265 268 269 269 270 271 273 273 272 270 272 nan nan nan nan nan nan nan nan nan nan nan nan nan nan nan nan nan nan nan nan nan nan nan nan nan nan nan nan nan nan nan nan nan nan nan nan nan
235 238 241 242 241 242 244 246 246 247 249 252 253 256 257 257 257 257 258 260 261 261 262 262 262 262 266 271 272 276 273 268 267 266 265 265 264 266 269 270 270 270 270 272 274 274 274 nan nan nan nan nan nan nan nan nan nan nan nan nan nan nan nan nan nan nan nan nan nan nan nan nan nan nan nan nan nan nan nan nan nan nan nan nan nan
240 239 240 244 242 242 243 245 248 248 249 252 252 253 253 252 252 258 262 262 261 263 262 263 264 263 266 269 270 269 267 267 266 266 266 265 264 264 266 268 268 268 268 268 270 nan nan nan nan nan nan nan nan nan nan nan nan nan nan nan nan nan nan nan nan nan nan nan nan nan nan nan nan nan nan nan nan nan nan nan nan nan nan nan nan
241 241 241 242 246 246 244 244 246 248 249 250 251 254 254 255 256 257 259 262 266 264 261 258 257 256 255 257 256 258 262 263 263 265 265 265 264 262 260 260 262 263 263 264 nan nan nan nan nan nan nan nan nan nan nan nan nan nan nan nan nan nan nan nan nan nan nan nan nan nan nan nan nan nan nan nan nan nan nan nan nan nan nan nan nan
242 241 240 241 244 247 248 245 244 246 249 250 249 251 255 256 256 257 259 261 261 259 256 253 254 259 259 258 256 255 256 256 258 261 262 262 261 261 261 261 nan nan nan nan nan nan nan nan nan nan nan nan nan nan nan nan nan nan nan nan nan nan nan nan nan nan nan nan nan nan nan nan nan nan nan nan nan nan nan nan nan nan nan nan nan
243 241 240 242 244 245 246 249 248 246 246 248 250 250 250 252 254 256 256 254 253 253 256 257 256 256 257 258 257 257 257 256 257 259 263 264 264 264 263 nan nan nan nan nan nan nan nan nan nan nan nan nan nan nan nan nan nan nan nan nan nan nan nan nan nan nan nan nan nan nan nan nan nan nan nan nan nan nan nan nan nan nan nan nan nan
242 243 243 244 245 246 246 248 249 249 249 248 248 249 252 253 254 256 258 258 258 258 258 258 257 256 255 253 253 254 254 255 256 259 262 263 nan nan nan nan nan nan nan nan nan nan nan nan nan nan nan nan nan nan nan nan nan nan nan nan nan nan nan nan nan nan nan nan nan nan nan nan nan nan nan nan nan nan nan nan nan nan nan nan nan
241 241 243 245 246 248 249 249 250 251 251 249 247 248 249 253 256 258 260 261 260 259 259 260 260 260 258 256 256 257 256 258 260 262 263 nan nan nan nan nan nan nan nan nan nan nan nan nan nan nan nan nan nan nan nan nan nan nan nan nan nan nan nan nan nan nan nan nan nan nan nan nan nan nan nan nan nan nan nan nan nan nan nan nan nan
243 240 242 245 246 248 250 251 252 253 252 252 252 253 252 253 254 255 256 257 259 262 261 258 257 255 255 257 260 262 262 263 263 262 nan nan nan nan nan nan nan nan nan nan nan nan nan nan nan nan nan nan nan nan nan nan nan nan nan nan nan nan nan nan nan nan nan nan nan nan nan nan nan nan nan nan nan nan nan nan nan nan nan nan nan
242 237 238 242 247 249 249 251 253 256 257 257 257 256 255 255 256 255 254 254 256 257 260 262 261 259 258 258 260 262 263 265 265 nan nan nan nan nan nan nan nan nan nan nan nan nan nan nan nan nan nan nan nan nan nan nan nan nan nan nan nan nan nan nan nan nan nan nan nan nan nan nan nan nan nan nan nan nan nan nan nan nan nan nan nan
237 234 236 240 242 244 247 251 255 257 257 258 258 257 255 255 256 257 259 259 258 258 260 261 262 262 261 260 261 262 263 264 265 nan nan nan nan nan nan nan nan nan nan nan nan nan nan nan nan nan nan nan nan nan nan nan nan nan nan nan nan nan nan nan nan nan nan nan nan nan nan nan nan nan nan nan nan nan nan nan nan nan nan nan nan
235 234 237 239 242 243 244 245 250 255 260 262 261 259 258 257 256 257 258 258 258 258 259 261 262 263 263 262 263 263 nan 264 265 nan nan nan nan nan nan nan nan nan nan nan nan nan nan nan nan nan nan nan nan nan nan nan nan nan nan nan nan nan nan nan nan nan nan nan nan nan nan nan nan nan nan nan nan nan nan nan nan nan nan nan nan
237 237 239 241 244 246 247 247 250 256 260 262 264 264 262 261 260 260 261 261 261 260 259 260 262 263 264 264 264 263 nan nan nan nan nan nan nan nan nan nan nan nan nan nan nan nan nan nan nan nan nan nan nan nan nan nan nan nan nan nan nan nan nan nan nan nan nan nan nan nan nan nan nan nan nan nan nan nan nan nan nan nan nan nan nan
238 241 244 249 253 255 256 256 257 259 261 263 263 263 264 264 263 263 263 264 264 264 263 262 nan nan nan 264 264 nan nan nan nan nan nan nan nan nan nan nan nan nan nan nan nan nan nan nan nan nan nan nan nan nan nan nan nan nan nan nan nan nan nan nan nan nan nan nan nan nan nan nan nan nan nan nan nan nan nan nan nan nan nan nan nan